Theta_e
321 322 322 321 320 327 328 329 330 327 325 326 327 328 329 328 324 316 306 317 317 328 320 306 307 305 305 303 301 298 291 288 291 291 293 295 296 295 298 300 300 304 310 314 326
319 320 321 322 320 326 327 328 329 328 325 326 328 329 327 324 314 310 323 329 332 330 319 310 303 303 300 301 300 295 291 292 294 295 293 296 296 297 298 299 302 307 314 322 329
318 319 319 321 320 320 326 326 327 328 327 327 327 328 325 319 314 314 327 328 330 321 312 314 305 303 299 300 298 294 292 295 294 296 295 295 293 295 296 295 300 305 312 322 326
317 318 318 317 320 321 325 325 327 327 328 327 327 326 319 317 301 315 329 329 328 314 308 307 302 298 297 296 296 291 296 295 296 297 296 295 296 293 297 297 297 307 317 322 323
316 316 317 316 315 320 321 323 326 327 327 327 327 320 314 305 309 310 327 328 321 314 310 303 299 298 295 297 295 292 292 295 295 296 296 297 294 294 295 295 301 315 317 320 323
315 315 316 316 315 318 319 319 325 326 326 327 323 319 309 304 312 315 318 320 316 309 309 306 301 301 298 296 295 296 293 292 293 294 295 294 293 294 295 301 310 315 314 316 321
314 314 314 315 315 315 319 320 323 325 326 326 322 314 305 308 310 315 315 313 310 306 302 306 306 300 299 296 296 294 292 290 291 293 293 294 291 293 293 300 310 312 313 315 317
314 313 313 314 315 316 318 319 322 324 325 324 322 310 300 309 312 312 308 306 305 304 304 305 303 302 298 296 294 291 290 286 291 292 291 293 288 295 295 300 306 310 311 314 316
312 313 313 314 315 317 317 318 321 324 325 322 309 305 300 312 307 309 307 304 303 303 301 303 301 297 296 292 288 287 284 285 287 291 290 290 290 293 293 297 298 307 309 311 312
312 312 312 312 315 316 317 319 321 323 318 314 310 301 302 300 305 305 304 305 300 299 297 296 292 288 286 286 282 282 283 284 286 290 289 287 290 289 291 293 296 296 303 306 309
310 310 311 312 315 317 316 312 310 304 305 300 299 298 300 305 307 303 303 300 297 294 288 290 288 284 286 287 287 286 285 284 285 289 289 287 289 290 289 288 290 292 294 298 304
309 310 310 311 314 317 315 304 309 307 297 300 301 301 303 306 298 300 303 296 292 287 289 287 285 288 290 288 287 284 283 282 286 288 288 286 288 290 290 291 291 292 292 293 295
308 309 309 311 313 314 310 309 314 310 296 296 300 299 300 305 299 297 299 293 290 287 287 286 288 291 290 286 286 282 283 282 284 285 285 283 285 286 289 290 292 292 292 293 295
306 307 308 311 307 311 308 315 313 308 289 288 293 299 299 303 298 302 300 296 290 287 288 287 289 289 286 285 286 281 286 285 285 283 281 282 279 284 285 287 287 291 292 294 295
306 306 307 310 307 306 311 313 313 303 278 291 293 302 300 299 298 300 301 295 288 287 287 285 286 286 285 286 288 285 287 285 283 280 279 278 278 283 282 285 288 291 292 294 294
304 305 307 307 308 312 315 310 306 288 278 286 293 292 293 295 295 297 297 296 293 290 288 286 288 289 288 286 288 287 284 283 281 279 276 277 278 279 281 286 288 289 288 290 290
304 305 306 308 303 314 311 303 284 281 287 284 287 291 290 289 290 294 291 289 286 281 280 283 283 285 288 285 285 284 282 276 275 274 275 276 276 281 285 286 287 287 287 288 291
304 305 306 308 311 313 305 291 279 285 285 287 289 290 286 289 289 290 289 286 289 285 281 281 279 285 287 286 283 282 284 277 272 272 275 278 276 282 286 288 287 288 288 291 292
304 304 305 309 311 309 296 282 281 286 287 286 288 285 283 287 288 288 288 288 289 286 282 279 280 286 286 287 289 283 280 284 278 268 273 276 279 284 286 286 287 287 287 290 291
301 303 304 310 311 302 288 286 285 290 289 289 283 286 282 285 286 287 286 290 289 288 288 286 280 285 286 288 287 286 287 282 279 272 270 275 276 279 284 283 285 286 288 288 291
304 299 306 310 307 294 285 286 285 289 292 288 285 284 285 284 285 286 286 287 291 287 288 286 284 281 286 284 283 283 282 281 281 279 274 270 276 281 283 284 285 287 288 289 290
303 291 306 307 291 289 286 287 290 289 292 288 289 286 286 287 284 285 285 286 290 289 286 287 284 278 281 285 286 284 284 284 281 276 276 277 278 284 285 286 286 286 287 287 290
297 294 305 303 285 286 290 288 288 289 289 287 286 288 290 287 283 284 285 289 290 290 287 288 282 275 280 283 284 282 281 284 282 281 277 275 278 285 286 285 287 288 288 289 290
296 286 294 297 294 290 287 285 285 291 288 289 287 290 288 286 287 284 286 289 291 290 295 293 284 282 279 281 284 282 282 283 283 279 277 279 279 283 286 287 287 288 289 290 291
287 286 290 286 288 291 289 286 285 284 289 289 286 288 288 283 284 284 286 287 289 293 291 290 283 282 281 283 285 284 283 284 284 286 283 285 283 285 287 288 287 288 289 290 291
285 290 292 288 292 290 290 286 286 286 287 286 286 289 289 285 287 283 285 284 286 286 285 285 276 281 278 282 283 282 283 284 285 286 284 279 281 285 287 287 287 288 288 288 289
289 293 294 290 290 288 287 288 287 290 290 289 289 289 286 288 289 290 291 290 289 288 285 284 279 276 272 281 282 278 282 283 284 284 285 281 285 287 284 285 286 287 288 289 287
Wind_Speed
23 21 22 19 17 24 21 18 18 22 22 18 19 12 10 6 8 1 6 5 6 10 5 1 3 2 3 3 3 3 5 2 6 6 5 5 5 2 3 6 1 1 4 3 14
18 17 17 18 20 22 22 19 19 21 24 21 17 14 9 8 3 7 4 6 8 9 4 5 2 2 2 1 1 5 5 8 6 4 4 7 6 9 5 5 3 2 4 7 16
13 18 16 20 19 17 23 20 19 23 23 22 19 15 14 6 2 8 14 10 9 11 7 1 5 1 3 1 3 4 6 5 3 4 3 4 2 3 7 2 8 9 7 14 16
14 16 13 11 18 18 25 22 19 23 24 24 21 21 17 3 10 3 21 21 12 8 10 3 4 4 4 6 3 3 4 7 2 1 4 7 7 5 7 7 1 7 12 17 19
15 9 15 15 16 21 19 19 20 21 23 23 22 24 9 3 6 0 13 23 15 11 11 6 8 5 6 5 4 3 3 6 1 2 3 6 6 5 7 2 5 10 11 14 16
15 10 12 12 17 18 18 20 21 21 23 22 27 19 6 13 2 4 7 14 12 12 11 9 6 5 3 5 7 8 3 1 2 2 2 2 2 4 5 5 7 10 12 10 14
17 10 8 9 19 18 20 19 21 22 24 25 28 8 4 11 5 4 5 7 7 10 14 13 8 4 5 4 4 5 5 3 3 1 2 2 2 7 1 4 7 9 8 8 8
14 13 11 13 21 20 23 18 22 22 25 24 23 4 4 5 3 6 5 5 6 7 7 6 7 11 3 2 5 5 5 3 3 4 1 5 8 2 5 7 9 8 7 8 9
16 12 10 15 18 22 22 21 23 26 26 25 8 7 5 4 8 5 7 10 6 5 4 5 6 3 3 4 4 7 4 3 2 1 1 3 7 4 4 6 7 7 8 7 6
14 13 12 13 16 23 24 20 25 25 22 10 4 9 2 8 5 5 5 8 5 8 5 5 4 4 3 3 7 6 5 4 6 5 3 2 7 2 1 5 9 7 7 7 8
14 14 16 14 17 25 19 8 17 10 15 6 14 5 9 4 5 4 6 5 5 7 6 1 5 7 8 7 5 6 6 5 1 3 1 6 7 8 2 4 8 9 8 9 13
18 16 17 16 19 26 19 15 20 10 12 3 18 3 5 6 6 5 9 9 6 6 7 5 7 5 6 6 5 3 4 4 1 1 3 2 10 10 6 7 8 9 8 12 7
17 17 19 19 20 20 20 28 11 19 7 2 7 5 6 8 10 13 11 5 8 9 6 9 8 8 8 5 7 3 6 5 3 2 3 2 8 6 6 5 5 8 9 8 15
23 22 21 20 16 17 25 24 17 7 5 10 8 6 6 8 8 1 5 7 5 9 7 6 3 10 5 6 6 4 6 5 5 5 5 2 7 7 6 8 5 11 11 16 15
24 21 24 25 7 20 21 17 22 3 12 14 8 4 8 15 17 8 2 2 9 8 8 7 10 10 6 9 8 7 6 7 4 4 1 1 2 7 1 6 8 14 17 16 9
26 24 25 17 14 19 25 20 14 9 8 8 10 10 14 4 5 11 5 5 3 5 5 4 1 8 9 4 6 10 8 8 5 3 4 3 3 6 5 9 8 7 3 4 8
26 25 23 13 22 21 23 17 10 13 11 8 16 17 22 15 12 18 16 10 8 9 7 3 2 1 4 9 4 6 8 2 2 2 6 1 3 8 8 11 4 3 2 1 1
28 27 23 20 18 25 18 12 9 14 12 5 22 23 16 18 7 24 26 16 13 5 6 11 7 9 4 7 10 7 11 8 8 4 3 3 8 8 8 7 4 6 6 2 4
24 14 16 20 25 18 19 15 12 26 17 20 21 24 7 11 11 18 25 26 19 12 11 8 5 2 2 4 12 6 6 7 9 3 4 5 8 11 5 8 5 6 3 4 4
11 14 21 26 28 19 15 17 7 15 17 26 14 20 19 25 16 22 24 23 21 9 2 7 7 1 2 3 2 10 11 5 2 5 4 4 5 7 4 3 4 4 7 5 3
12 14 18 21 18 18 21 9 5 8 26 20 13 12 13 23 13 23 27 4 17 10 3 5 6 3 4 7 9 5 6 3 6 6 6 2 7 7 5 4 5 7 7 6 6
9 10 15 22 15 13 18 10 6 21 14 6 8 4 14 20 7 12 14 8 14 10 9 3 7 5 7 3 3 3 9 6 7 6 1 3 7 1 6 5 5 6 6 4 4
12 4 21 16 15 18 14 5 6 23 21 9 8 5 18 16 8 4 8 4 10 12 11 8 2 5 4 4 3 5 2 6 6 3 7 6 7 3 4 2 4 6 6 6 6
5 8 10 18 11 31 24 7 9 12 5 6 9 14 16 16 5 9 9 6 10 8 10 9 4 8 12 8 9 5 5 5 7 2 5 8 3 4 6 5 3 3 4 5 6
1 4 2 18 17 26 16 4 23 12 5 9 5 22 21 10 5 8 8 7 5 13 8 8 7 5 3 4 7 7 10 11 16 22 13 15 13 9 11 11 7 5 3 4 4
5 8 4 8 31 28 21 15 29 7 9 15 20 29 25 18 14 12 10 3 11 4 5 2 3 5 4 4 3 4 8 15 20 15 12 3 5 5 6 5 6 8 9 8 7
1 4 14 15 28 23 26 23 30 20 5 7 19 20 7 12 8 8 7 7 11 11 4 8 8 5 5 2 6 5 15 12 12 8 13 13 9 5 6 8 10 10 9 7 0
Wind_Direction
234 218 232 237 278 217 209 208 198 192 182 177 175 193 173 143 121 293 230 196 158 130 67 273 314 21 32 70 52 137 69 195 204 155 227 153 164 144 127 119 190 204 161 288 131
243 235 238 220 230 238 211 205 204 191 181 186 175 166 139 127 74 249 251 205 164 128 155 66 12 343 72 58 14 95 127 213 209 207 214 187 177 161 142 127 227 150 28 123 144
252 229 213 242 218 244 225 206 208 190 179 184 184 160 136 137 113 250 180 228 170 131 98 100 305 276 159 152 209 180 171 178 253 229 191 194 188 172 118 217 214 191 156 158 158
256 240 211 234 251 253 235 212 202 194 186 182 176 150 131 191 190 175 180 190 171 128 108 126 249 188 163 196 189 162 229 152 232 338 148 185 131 184 181 208 257 193 159 161 175
257 264 226 213 241 253 252 247 203 197 188 182 156 134 121 133 240 335 196 178 159 146 160 170 185 146 194 184 121 201 229 164 113 15 236 141 179 188 218 15 76 131 151 173 180
254 237 234 215 221 250 234 254 211 195 177 164 144 134 144 217 255 340 146 162 171 144 150 154 198 203 175 199 181 189 183 116 55 111 105 152 140 160 233 129 120 151 172 179 184
238 245 250 229 218 232 224 245 222 193 173 160 151 144 150 189 351 327 133 166 154 137 165 175 176 274 144 168 200 137 130 342 122 226 153 147 85 224 143 137 162 182 179 189 198
237 237 235 231 224 218 228 232 230 184 162 154 154 91 183 125 142 220 115 74 108 134 142 158 135 177 233 222 40 102 62 133 302 148 357 118 249 257 161 153 190 198 201 199 212
234 234 240 240 233 211 228 218 226 179 152 144 142 140 197 324 174 208 119 140 118 103 92 115 110 156 72 134 74 12 151 160 288 87 122 142 244 252 147 178 211 210 217 222 238
236 251 236 266 241 208 212 224 201 164 135 118 181 84 223 208 155 138 113 140 144 122 79 94 71 112 69 106 186 166 136 193 188 213 133 159 261 284 170 189 220 227 234 232 234
252 245 239 258 244 205 200 231 175 155 146 174 180 145 129 162 114 125 144 95 84 92 147 164 133 180 177 167 164 160 136 164 275 7 159 209 245 251 279 274 241 237 223 229 232
251 243 246 248 250 209 198 222 187 125 137 301 158 39 159 158 108 131 165 132 138 136 120 81 200 194 160 162 139 131 141 185 103 26 151 133 263 257 188 232 218 233 232 231 238
256 254 255 240 246 205 205 216 154 134 116 175 181 149 168 149 159 171 155 111 146 142 166 156 185 148 145 160 140 145 163 179 189 95 37 351 278 239 242 212 231 239 237 243 229
258 254 254 237 253 198 213 193 163 140 125 162 172 223 146 152 141 308 152 137 140 162 124 160 119 144 154 175 126 145 193 135 128 122 220 117 275 251 237 239 211 243 237 239 234
260 255 251 220 253 214 183 159 177 118 184 158 148 157 144 159 128 215 350 22 155 159 138 194 151 150 173 181 150 197 124 141 125 124 122 232 259 256 322 256 226 231 231 239 247
257 252 245 231 235 224 160 168 175 188 188 188 134 150 130 143 134 122 157 349 157 106 68 153 112 161 174 91 137 149 84 53 60 78 280 246 183 264 183 206 250 240 148 250 250
259 253 231 221 221 207 150 164 174 199 151 158 154 161 155 152 141 152 176 196 171 125 162 85 191 186 137 94 51 99 91 16 25 333 222 299 255 255 264 253 258 166 147 319 21
256 257 229 223 204 181 158 162 198 129 168 181 164 152 169 139 141 164 170 190 234 127 127 159 212 169 189 169 160 179 160 156 180 207 234 40 241 250 231 260 268 266 278 119 124
266 235 218 202 182 169 156 175 181 167 163 157 160 151 128 161 136 165 180 192 188 189 156 147 217 55 89 144 148 188 183 148 103 29 59 222 294 297 271 268 246 236 210 222 174
243 200 201 174 165 154 161 175 179 150 121 140 155 173 160 169 146 177 176 203 196 180 222 186 113 29 137 100 44 182 149 141 348 143 232 267 272 240 315 25 196 188 209 199 194
211 187 169 146 171 153 177 175 163 166 141 148 159 169 171 173 171 182 184 178 181 161 116 136 101 181 115 217 161 129 181 82 121 154 165 181 257 220 252 260 237 214 211 187 183
174 185 160 149 169 169 178 144 136 156 136 117 116 112 162 168 117 173 184 161 152 141 152 161 112 127 199 253 222 176 172 161 174 210 124 138 274 305 270 258 219 157 178 164 169
180 140 155 171 174 166 161 119 128 157 158 144 139 155 156 158 124 138 152 155 149 153 161 178 42 90 28 327 205 201 172 172 98 73 188 141 256 330 329 27 46 118 122 135 149
171 150 162 175 176 158 162 156 119 162 96 117 116 117 130 162 112 163 151 190 167 149 145 111 132 156 190 227 134 164 143 145 128 186 158 222 196 209 242 191 172 127 134 137 143
83 163 152 175 167 168 148 130 149 162 169 127 119 162 158 149 110 149 152 135 184 156 141 148 163 145 28 169 146 164 173 173 193 220 194 232 206 206 203 194 184 191 166 165 169
127 166 131 153 161 163 170 171 165 141 145 176 171 168 167 160 184 160 118 139 172 15 108 21 152 115 12 34 95 151 175 188 212 218 243 53 233 215 215 145 183 178 178 197 199
1 295 140 165 165 161 185 174 174 150 6 147 145 155 147 164 85 124 101 102 141 165 126 125 122 95 234 34 80 330 213 199 222 215 211 212 181 195 198 204 214 202 193 187 101